Location: Bad Salzschlirf
(50.3750°N, 9.3000°E)
Time: 06:03:02
(UTC+01:00)

ISS - Pass Details

Date: 22 January 2021
Orbit: 418 x 421 km, 51.6° (Epoch: 23 January)

Event Time Altitude Azimuth Distance (km) Brightness Sun altitude
Rises 20:17:46 0° 264° (W) 2,369 1.1 -31.2°
Reaches altitude 10° 20:19:52 10° 266° (W) 1,506 -0.1 -31.6°
Enters shadow 20:20:07 12° 267° (W) 1,406 -0.3 -31.6°
